M I D A S
Marine Information and Data Acquisition System
Tripno 1691 of the Zeeleeuw from 2009-05-08 06:45:49 to 2009-05-08 12:07:22
Back to CruiseResearch ActivitiesStationsMapUnderway DataData graphs

EquipmentUnitsComments
TimeDGPSUTC
LatitudeDGPSDM.mWGS84
LongitudeDGPSDM.mWGS84
SpeedMeteo Stationm/sRelative wind speed
DirectionMeteo StationdegRelative wind direction
TemperatureMeteo Stationdeg CelciusAir temperature
PressureMeteo StationPaAtmospheric pressure
HumidityMeteo Station%Relative humidity
Missing or incorrect values are displayed as -999
Metereological data collected by the RV Zeeleeuw from 2009-05-08 06:36:44 to 2009-05-08 12:47:16
                                                                                    Next 1000 lines
Time Latitude Longitude Speed Direction Temperature Pressure Humidity
2009-05-08 06:36:53 51°13.664 2°55.958 4.3 6 11.6 101080 87
2009-05-08 06:36:59 51°13.663 2°55.958 4.5 10 11.6 101080 87
2009-05-08 06:37:04 51°13.663 2°55.958 3.8 7 11.6 101080 87
2009-05-08 06:37:09 51°13.663 2°55.958 5.9 357 11.6 101080 87
2009-05-08 06:37:13 51°13.663 2°55.958 6 340 11.6 101080 87
2009-05-08 06:37:18 51°13.663 2°55.958 4.9 10 11.6 101080 87
2009-05-08 06:37:24 51°13.663 2°55.958 2.8 17 11.6 101080 87
2009-05-08 06:37:29 51°13.663 2°55.958 3.1 4 11.6 101080 87
2009-05-08 06:37:33 51°13.663 2°55.958 4.3 16 11.6 101080 87
2009-05-08 06:37:38 51°13.663 2°55.958 3.9 10 11.6 101080 87
2009-05-08 06:37:43 51°13.664 2°55.958 3.8 14 11.6 101070 87
2009-05-08 06:37:49 51°13.664 2°55.958 5.2 28 11.6 101070 87
2009-05-08 06:37:53 51°13.664 2°55.958 5 35 11.6 101080 87
2009-05-08 06:37:59 51°13.664 2°55.958 4.6 25 11.6 101080 87
2009-05-08 06:38:04 51°13.664 2°55.958 3.7 19 11.6 101080 87
2009-05-08 06:38:09 51°13.664 2°55.958 3.2 10 11.6 101080 87
2009-05-08 06:38:13 51°13.664 2°55.958 2 36 11.6 101070 87
2009-05-08 06:38:18 51°13.664 2°55.958 3.3 19 11.6 101070 87
2009-05-08 06:38:23 51°13.664 2°55.958 2.4 23 11.6 101080 87
2009-05-08 06:38:29 51°13.663 2°55.958 4.2 1 11.6 101080 87
2009-05-08 06:38:33 51°13.663 2°55.958 3 9 11.6 101070 87
2009-05-08 06:38:38 51°13.663 2°55.958 3.9 13 11.6 101070 87
2009-05-08 06:38:43 51°13.663 2°55.958 4 3 11.6 101080 87
2009-05-08 06:38:48 51°13.663 2°55.958 3.8 15 11.6 101080 87
2009-05-08 06:38:53 51°13.663 2°55.958 3.5 16 11.6 101070 87
2009-05-08 06:38:59 51°13.663 2°55.958 5.1 15 11.6 101070 87
2009-05-08 06:39:04 51°13.663 2°55.958 3.8 9 11.7 101070 87
2009-05-08 06:39:09 51°13.663 2°55.958 5.4 15 11.7 101070 87
2009-05-08 06:39:13 51°13.663 2°55.958 5.6 4 11.6 101080 87
2009-05-08 06:39:19 51°13.663 2°55.958 6.8 17 11.6 101080 87
2009-05-08 06:39:24 51°13.663 2°55.958 6.4 16 11.6 101080 87
2009-05-08 06:39:29 51°13.663 2°55.958 6.6 11 11.6 101080 87
2009-05-08 06:39:33 51°13.662 2°55.959 5.1 28 11.6 101080 86
2009-05-08 06:39:38 51°13.662 2°55.959 4.1 22 11.6 101080 86
2009-05-08 06:39:44 51°13.662 2°55.959 4.3 5 11.6 101080 86
2009-05-08 06:39:49 51°13.662 2°55.959 4.5 9 11.6 101080 86
2009-05-08 06:39:53 51°13.662 2°55.959 3.9 27 11.6 101080 86
2009-05-08 06:39:58 51°13.662 2°55.959 4.1 37 11.6 101080 86
2009-05-08 06:40:04 51°13.662 2°55.959 4.4 19 11.6 101080 86
2009-05-08 06:40:09 51°13.663 2°55.959 4.8 21 11.6 101080 86
2009-05-08 06:40:13 51°13.663 2°55.959 5.6 17 11.6 101080 86
2009-05-08 06:40:19 51°13.663 2°55.958 5 19 11.6 101080 86
2009-05-08 06:40:23 51°13.663 2°55.958 5.7 22 11.6 101080 86
2009-05-08 06:40:29 51°13.663 2°55.958 4.9 21 11.6 101080 86
2009-05-08 06:40:33 51°13.663 2°55.958 4 16 11.7 101080 86
2009-05-08 06:40:38 51°13.663 2°55.958 3.3 20 11.7 101080 86
2009-05-08 06:40:43 51°13.663 2°55.958 3.1 7 11.6 101080 86
2009-05-08 06:40:49 51°13.663 2°55.958 2.8 23 11.6 101080 86
2009-05-08 06:40:53 51°13.663 2°55.958 3.1 16 11.7 101080 86
2009-05-08 06:40:59 51°13.663 2°55.958 3.4 359 11.7 101080 86
2009-05-08 06:41:03 51°13.663 2°55.958 2.8 5 11.6 101080 86
2009-05-08 06:41:09 51°13.663 2°55.958 4.5 11 11.6 101080 86
2009-05-08 06:41:13 51°13.663 2°55.958 5.6 10 11.6 101080 86
2009-05-08 06:41:18 51°13.663 2°55.958 4.3 6 11.6 101080 86
2009-05-08 06:41:23 51°13.663 2°55.958 3.7 6 11.6 101080 86
2009-05-08 06:41:29 51°13.663 2°55.958 2.7 16 11.6 101080 86
2009-05-08 06:41:33 51°13.663 2°55.958 3.1 347 11.6 101080 86
2009-05-08 06:41:39 51°13.663 2°55.959 4.7 351 11.6 101080 86
2009-05-08 06:41:43 51°13.663 2°55.959 1.9 1 11.6 101080 86
2009-05-08 06:41:49 51°13.663 2°55.959 1.9 9 11.6 101080 86
2009-05-08 06:41:53 51°13.663 2°55.959 2 2 11.7 101080 86
2009-05-08 06:41:58 51°13.663 2°55.959 2.7 350 11.7 101080 86
2009-05-08 06:42:03 51°13.663 2°55.959 3.3 16 11.7 101070 87
2009-05-08 06:42:08 51°13.663 2°55.959 3.5 3 11.7 101070 87
2009-05-08 06:42:13 51°13.663 2°55.959 3.2 24 11.7 101080 86
2009-05-08 06:42:18 51°13.663 2°55.959 3.5 6 11.7 101080 86
2009-05-08 06:42:23 51°13.663 2°55.959 5.5 7 11.7 101080 86
2009-05-08 06:42:28 51°13.663 2°55.959 4.3 3 11.7 101080 86
2009-05-08 06:42:33 51°13.663 2°55.959 4.2 4 11.7 101080 86
2009-05-08 06:42:37 51°13.663 2°55.959 5.1 5 11.7 101080 86
2009-05-08 06:42:42 51°13.663 2°55.959 5.5 2 11.7 101080 86
2009-05-08 06:42:48 51°13.663 2°55.959 4.1 4 11.7 101080 86
2009-05-08 06:42:53 51°13.663 2°55.959 3.9 357 11.7 101080 86
2009-05-08 06:42:58 51°13.663 2°55.959 4.5 6 11.7 101080 86
2009-05-08 06:43:03 51°13.663 2°55.959 4.9 6 11.7 101080 86
2009-05-08 06:43:08 51°13.663 2°55.959 4.4 358 11.7 101080 86
2009-05-08 06:43:13 51°13.663 2°55.959 3.9 10 11.7 101080 86
2009-05-08 06:43:18 51°13.663 2°55.959 3.7 356 11.7 101080 86
2009-05-08 06:43:23 51°13.663 2°55.959 4.3 351 11.7 101080 86
2009-05-08 06:43:28 51°13.663 2°55.959 5.1 9 11.7 101080 86
2009-05-08 06:43:33 51°13.663 2°55.959 4.1 4 11.7 101070 86
2009-05-08 06:43:38 51°13.663 2°55.959 5.6 10 11.7 101070 86
2009-05-08 06:43:42 51°13.663 2°55.959 4.3 9 11.7 101080 86
2009-05-08 06:43:47 51°13.663 2°55.959 5.5 12 11.7 101080 86
2009-05-08 06:43:52 51°13.663 2°55.959 4.7 354 11.7 101080 86
2009-05-08 06:43:57 51°13.663 2°55.959 3.7 354 11.7 101080 86
2009-05-08 06:44:02 51°13.663 2°55.959 3.9 7 11.7 101080 86
2009-05-08 06:44:07 51°13.663 2°55.959 5.7 18 11.7 101080 86
2009-05-08 06:44:13 51°13.663 2°55.959 3.8 8 11.7 101070 86
2009-05-08 06:44:17 51°13.663 2°55.959 4.3 17 11.7 101070 86
2009-05-08 06:44:22 51°13.663 2°55.959 4.3 33 11.7 101080 86
2009-05-08 06:44:27 51°13.663 2°55.959 3.2 6 11.7 101080 86
2009-05-08 06:44:32 51°13.663 2°55.959 3 6 11.7 101080 86
2009-05-08 06:44:37 51°13.663 2°55.959 2.9 14 11.7 101080 86
2009-05-08 06:44:42 51°13.663 2°55.959 2.2 17 11.7 101080 86
2009-05-08 06:44:46 51°13.663 2°55.959 2.9 15 11.7 101080 86
2009-05-08 06:44:51 51°13.663 2°55.96 2.8 9 11.7 101080 86
2009-05-08 06:44:56 51°13.663 2°55.96 3.2 10 11.7 101080 86
2009-05-08 06:45:01 51°13.663 2°55.96 6.9 11 11.7 101080 86
2009-05-08 06:45:06 51°13.663 2°55.96 6.7 7 11.7 101080 86
2009-05-08 06:45:11 51°13.663 2°55.96 5.6 18 11.8 101080 87
2009-05-08 06:45:16 51°13.663 2°55.96 3.4 13 11.8 101080 87
2009-05-08 06:45:20 51°13.663 2°55.96 5.9 14 11.8 101080 87
2009-05-08 06:45:25 51°13.663 2°55.96 6.5 12 11.8 101080 87
2009-05-08 06:45:30 51°13.663 2°55.96 5.5 6 11.8 101080 86
2009-05-08 06:45:35 51°13.663 2°55.96 5.1 16 11.8 101080 86
2009-05-08 06:45:40 51°13.663 2°55.96 4.9 16 11.8 101090 86
2009-05-08 06:45:45 51°13.663 2°55.96 4.8 14 11.8 101090 86
2009-05-08 06:45:50 51°13.663 2°55.96 4.5 4 11.8 101080 86
2009-05-08 06:45:55 51°13.663 2°55.96 4.9 6 11.8 101080 86
2009-05-08 06:46:00 51°13.663 2°55.96 3.9 360 11.8 101080 86
2009-05-08 06:46:05 51°13.663 2°55.96 4.4 10 11.8 101080 86
2009-05-08 06:46:10 51°13.662 2°55.96 3.4 22 11.8 101080 86
2009-05-08 06:46:15 51°13.662 2°55.96 4 27 11.8 101080 86
2009-05-08 06:46:20 51°13.662 2°55.96 2.8 32 11.8 101080 86
2009-05-08 06:46:25 51°13.662 2°55.96 2.1 27 11.8 101080 86
2009-05-08 06:46:30 51°13.662 2°55.96 4.9 42 11.8 101070 86
2009-05-08 06:46:35 51°13.662 2°55.96 3.7 41 11.8 101070 86
2009-05-08 06:46:40 51°13.662 2°55.96 3.2 40 11.8 101080 86
2009-05-08 06:46:45 51°13.662 2°55.96 2.6 32 11.8 101080 86
2009-05-08 06:46:50 51°13.662 2°55.96 4.3 20 11.8 101080 86
2009-05-08 06:46:55 51°13.662 2°55.96 4.4 31 11.8 101080 86
2009-05-08 06:47:00 51°13.662 2°55.96 4.3 4 11.8 101080 85
2009-05-08 06:47:05 51°13.662 2°55.96 4.5 1 11.8 101080 85
2009-05-08 06:47:10 51°13.662 2°55.96 4.1 1 11.8 101080 86
2009-05-08 06:47:15 51°13.662 2°55.96 4.1 3 11.8 101080 86
2009-05-08 06:47:20 51°13.662 2°55.96 3.6 8 11.8 101080 86
2009-05-08 06:47:25 51°13.661 2°55.96 4.3 25 11.8 101080 86
2009-05-08 06:47:30 51°13.661 2°55.96 4.6 38 11.8 101080 85
2009-05-08 06:47:35 51°13.661 2°55.96 5.2 45 11.8 101080 85
2009-05-08 06:47:40 51°13.661 2°55.96 4.9 30 11.8 101070 85
2009-05-08 06:47:45 51°13.661 2°55.96 3.3 35 11.8 101070 85
2009-05-08 06:47:50 51°13.661 2°55.96 5.9 10 11.8 101080 85
2009-05-08 06:47:55 51°13.661 2°55.96 6.9 14 11.8 101080 85
2009-05-08 06:48:00 51°13.661 2°55.96 5.7 15 11.7 101080 85
2009-05-08 06:48:05 51°13.661 2°55.96 6.4 19 11.7 101080 85
2009-05-08 06:48:10 51°13.661 2°55.96 6.3 17 11.7 101080 85
2009-05-08 06:48:15 51°13.661 2°55.96 5.7 21 11.7 101080 85
2009-05-08 06:48:20 51°13.661 2°55.959 4.4 26 11.7 101080 85
2009-05-08 06:48:25 51°13.661 2°55.959 3.8 26 11.7 101080 85
2009-05-08 06:48:29 51°13.661 2°55.959 3.6 24 11.7 101070 85
2009-05-08 06:48:35 51°13.661 2°55.959 3.2 19 11.7 101070 85
2009-05-08 06:48:40 51°13.661 2°55.959 2.2 16 11.7 101080 85
2009-05-08 06:48:45 51°13.662 2°55.958 2 33 11.7 101080 85
2009-05-08 06:48:50 51°13.662 2°55.956 3.2 24 11.7 101080 85
2009-05-08 06:48:55 51°13.663 2°55.953 2.9 31 11.7 101080 85
2009-05-08 06:49:00 51°13.664 2°55.951 3.2 33 11.7 101080 85
2009-05-08 06:49:05 51°13.664 2°55.948 3.1 37 11.7 101080 85
2009-05-08 06:49:10 51°13.665 2°55.945 3.7 43 11.8 101080 85
2009-05-08 06:49:16 51°13.667 2°55.941 3 34 11.8 101080 85
2009-05-08 06:49:22 51°13.668 2°55.938 3.4 27 11.8 101080 85
2009-05-08 06:49:28 51°13.67 2°55.934 3.2 15 11.8 101080 85
2009-05-08 06:49:33 51°13.671 2°55.93 3.3 10 11.8 101080 86
2009-05-08 06:49:38 51°13.672 2°55.926 5.7 8 11.8 101080 86
2009-05-08 06:49:43 51°13.673 2°55.921 4.2 8 11.8 101080 85
2009-05-08 06:49:49 51°13.675 2°55.916 4.6 11 11.8 101080 85
2009-05-08 06:49:53 51°13.676 2°55.912 4 6 11.8 101080 85
2009-05-08 06:49:58 51°13.677 2°55.907 3.8 5 11.8 101080 85
2009-05-08 06:50:04 51°13.679 2°55.901 7 26 11.8 101080 85
2009-05-08 06:50:09 51°13.68 2°55.896 3.7 18 11.8 101080 85
2009-05-08 06:50:13 51°13.682 2°55.891 3.6 30 11.8 101070 85
2009-05-08 06:50:18 51°13.683 2°55.884 4.3 33 11.8 101070 85
2009-05-08 06:50:23 51°13.684 2°55.878 4.2 30 11.8 101070 85
2009-05-08 06:50:29 51°13.686 2°55.87 5 32 11.8 101070 85
2009-05-08 06:50:33 51°13.687 2°55.865 5.6 31 11.8 101070 85
2009-05-08 06:50:39 51°13.688 2°55.857 4.5 28 11.8 101070 85
2009-05-08 06:50:44 51°13.689 2°55.851 3.1 28 11.8 101070 86
2009-05-08 06:50:49 51°13.69 2°55.845 4.2 76 11.8 101070 86
2009-05-08 06:50:53 51°13.69 2°55.84 4.9 35 11.8 101070 85
2009-05-08 06:50:58 51°13.691 2°55.834 4.5 38 11.8 101070 85
2009-05-08 06:51:04 51°13.692 2°55.827 3.8 42 11.8 101070 85
2009-05-08 06:51:09 51°13.692 2°55.821 3.3 37 11.8 101070 85
2009-05-08 06:51:13 51°13.693 2°55.816 4 28 11.8 101070 85
2009-05-08 06:51:18 51°13.693 2°55.81 3.6 80 11.8 101070 85
2009-05-08 06:51:24 51°13.694 2°55.803 3.5 38 11.8 101070 85
2009-05-08 06:51:29 51°13.694 2°55.798 3.7 44 11.8 101070 85
2009-05-08 06:51:33 51°13.695 2°55.794 5.2 39 11.8 101070 85
2009-05-08 06:51:38 51°13.694 2°55.789 5 40 11.8 101070 85
2009-05-08 06:51:44 51°13.694 2°55.782 4.5 27 11.9 101070 85
2009-05-08 06:51:49 51°13.693 2°55.777 5.1 77 11.9 101070 85
2009-05-08 06:51:53 51°13.693 2°55.773 6.1 42 11.8 101070 85
2009-05-08 06:51:59 51°13.692 2°55.768 6.7 80 11.8 101070 85
2009-05-08 06:52:04 51°13.692 2°55.764 4.9 32 11.8 101070 85
2009-05-08 06:52:09 51°13.692 2°55.76 6.2 80 11.8 101070 85
2009-05-08 06:52:13 51°13.692 2°55.757 7.8 33 11.8 101070 85
2009-05-08 06:52:18 51°13.692 2°55.754 8 41 11.8 101070 85
2009-05-08 06:52:24 51°13.693 2°55.752 6.5 38 11.8 101070 84
2009-05-08 06:52:29 51°13.693 2°55.75 4.7 32 11.8 101070 84
2009-05-08 06:52:33 51°13.694 2°55.749 4.8 34 11.8 101070 84
2009-05-08 06:52:38 51°13.694 2°55.749 5 75 11.8 101070 84
2009-05-08 06:52:44 51°13.695 2°55.748 5.3 36 11.8 101060 84
2009-05-08 06:52:49 51°13.697 2°55.749 3.6 81 11.8 101060 84
2009-05-08 06:52:53 51°13.698 2°55.749 2.7 24 11.8 101060 85
2009-05-08 06:52:58 51°13.699 2°55.75 2.9 80 11.8 101060 85
2009-05-08 06:53:03 51°13.7 2°55.751 5.6 36 11.8 101060 85
2009-05-08 06:53:08 51°13.702 2°55.752 5 75 11.8 101060 85
2009-05-08 06:53:13 51°13.704 2°55.753 5.7 33 11.9 101070 85
2009-05-08 06:53:18 51°13.707 2°55.754 4.7 80 11.9 101070 85
2009-05-08 06:53:24 51°13.711 2°55.755 4.7 33 11.8 101070 85
2009-05-08 06:53:29 51°13.714 2°55.755 7.1 75 11.8 101070 85
2009-05-08 06:53:33 51°13.717 2°55.754 7.3 33 11.8 101070 84
2009-05-08 06:53:38 51°13.721 2°55.752 3.1 285 11.8 101070 84
2009-05-08 06:53:43 51°13.725 2°55.75 3.9 21 11.8 101070 84
2009-05-08 06:53:48 51°13.73 2°55.746 3.8 281 11.8 101070 84
2009-05-08 06:53:53 51°13.734 2°55.742 4.9 268 11.8 101070 84
2009-05-08 06:53:58 51°13.739 2°55.735 3.5 284 11.8 101070 84
2009-05-08 06:54:02 51°13.743 2°55.729 4.8 256 11.8 101080 84
2009-05-08 06:54:08 51°13.75 2°55.719 4.1 285 11.8 101080 84
2009-05-08 06:54:13 51°13.755 2°55.709 4.6 252 11.8 101070 84
2009-05-08 06:54:17 51°13.76 2°55.702 5.3 282 11.8 101070 84
2009-05-08 06:54:22 51°13.767 2°55.692 6.2 254 11.8 101070 85
2009-05-08 06:54:27 51°13.774 2°55.683 6.1 281 11.8 101070 85
2009-05-08 06:54:32 51°13.782 2°55.677 4.3 248 11.8 101070 85
2009-05-08 06:54:37 51°13.791 2°55.669 5.6 280 11.8 101070 85
2009-05-08 06:54:41 51°13.798 2°55.661 5.4 237 11.8 101070 85
2009-05-08 06:54:46 51°13.806 2°55.652 4.2 281 11.8 101070 85
2009-05-08 06:54:51 51°13.815 2°55.642 4.3 256 11.8 101060 85
2009-05-08 06:54:56 51°13.826 2°55.634 5.2 284 11.8 101060 85
2009-05-08 06:55:01 51°13.836 2°55.625 2.2 26 11.8 101060 85
2009-05-08 06:55:06 51°13.846 2°55.618 1.6 279 11.8 101060 85
2009-05-08 06:55:10 51°13.854 2°55.611 1.8 321 11.9 101060 85
2009-05-08 06:55:16 51°13.867 2°55.6 1 23 11.9 101060 85
2009-05-08 06:55:21 51°13.877 2°55.592 2.3 17 11.9 101060 85
2009-05-08 06:55:25 51°13.886 2°55.585 2.1 285 11.9 101060 85
2009-05-08 06:55:30 51°13.897 2°55.577 1.3 263 11.9 101060 85
2009-05-08 06:55:35 51°13.908 2°55.569 3 286 11.9 101060 85
2009-05-08 06:55:40 51°13.919 2°55.562 2.9 247 11.9 101060 85
2009-05-08 06:55:45 51°13.93 2°55.555 3.4 279 11.9 101060 85
2009-05-08 06:55:50 51°13.942 2°55.548 4.2 32 11.9 101060 85
2009-05-08 06:55:55 51°13.954 2°55.541 4.3 284 11.9 101060 85
2009-05-08 06:56:00 51°13.965 2°55.533 3.1 20 11.9 101060 85
2009-05-08 06:56:05 51°13.977 2°55.524 4.2 281 11.9 101060 85
2009-05-08 06:56:10 51°13.988 2°55.516 4.4 247 12 101070 85
2009-05-08 06:56:15 51°14 2°55.507 2.9 286 12 101070 85
2009-05-08 06:56:20 51°14.011 2°55.498 4 250 12 101070 85
2009-05-08 06:56:25 51°14.023 2°55.491 3.1 280 12 101070 85
2009-05-08 06:56:30 51°14.035 2°55.482 2.7 260 12 101070 85
2009-05-08 06:56:35 51°14.046 2°55.473 3.3 281 12 101070 85
2009-05-08 06:56:40 51°14.058 2°55.465 2.2 33 12 101060 85
2009-05-08 06:56:45 51°14.069 2°55.456 3.7 282 12 101060 85
2009-05-08 06:56:50 51°14.081 2°55.448 3.1 24 12 101060 85
2009-05-08 06:56:55 51°14.093 2°55.439 1.6 289 12 101060 85
2009-05-08 06:57:00 51°14.104 2°55.43 2 318 12 101070 84
2009-05-08 06:57:05 51°14.116 2°55.422 4 280 12 101070 84
2009-05-08 06:57:10 51°14.128 2°55.413 6.2 318 12 101070 84
2009-05-08 06:57:15 51°14.139 2°55.404 4 286 12 101070 84
2009-05-08 06:57:20 51°14.151 2°55.395 3.3 238 12 101060 84
2009-05-08 06:57:25 51°14.163 2°55.386 3.9 283 12 101060 84
2009-05-08 06:57:30 51°14.175 2°55.377 4 249 12.1 101060 84
2009-05-08 06:57:35 51°14.187 2°55.367 2.3 79 12.1 101060 84
2009-05-08 06:57:40 51°14.198 2°55.358 1.5 320 12.1 101060 84
2009-05-08 06:57:45 51°14.21 2°55.347 2 278 12.1 101060 84
2009-05-08 06:57:50 51°14.221 2°55.336 3 315 12.1 101060 84
2009-05-08 06:57:55 51°14.231 2°55.325 4.4 278 12.1 101060 84
2009-05-08 06:58:00 51°14.242 2°55.312 7.3 35 12.1 101060 84
2009-05-08 06:58:05 51°14.252 2°55.299 6 287 12.1 101060 84
2009-05-08 06:58:10 51°14.262 2°55.286 6 31 12.1 101060 84
2009-05-08 06:58:15 51°14.271 2°55.272 8.6 280 12.1 101060 84
2009-05-08 06:58:20 51°14.28 2°55.257 8.6 20 12.1 101060 84
2009-05-08 06:58:25 51°14.289 2°55.242 7.7 283 12.1 101060 84
2009-05-08 06:58:30 51°14.298 2°55.227 7.5 32 12.1 101060 84
2009-05-08 06:58:35 51°14.307 2°55.212 9.3 279 12.1 101060 84
2009-05-08 06:58:40 51°14.315 2°55.197 7 34 12.2 101050 84
2009-05-08 06:58:45 51°14.324 2°55.181 7.9 286 12.2 101050 84
2009-05-08 06:58:50 51°14.332 2°55.165 7.3 33 12.1 101050 83
2009-05-08 06:58:55 51°14.34 2°55.148 8.2 279 12.1 101050 83
2009-05-08 06:59:00 51°14.348 2°55.131 7.5 38 12.1 101050 83
2009-05-08 06:59:05 51°14.355 2°55.113 13.4 278 12.1 101050 83
2009-05-08 06:59:10 51°14.362 2°55.094 9 26 12.1 101050 83
2009-05-08 06:59:15 51°14.369 2°55.076 11.7 281 12.1 101050 83
2009-05-08 06:59:20 51°14.375 2°55.056 12.5 240 12.2 101050 83
2009-05-08 06:59:25 51°14.382 2°55.037 12.9 282 12.2 101050 83
2009-05-08 06:59:30 51°14.388 2°55.017 13.2 22 12.2 101050 83
2009-05-08 06:59:35 51°14.394 2°54.998 10.1 279 12.2 101050 83
2009-05-08 06:59:40 51°14.401 2°54.978 12.8 244 12.1 101050 83
2009-05-08 06:59:45 51°14.409 2°54.959 8.8 282 12.1 101050 83
2009-05-08 06:59:50 51°14.416 2°54.939 9.2 242 12.1 101050 83
2009-05-08 06:59:55 51°14.424 2°54.918 10.7 281 12.1 101050 83
2009-05-08 07:00:00 51°14.432 2°54.897 9.4 242 12.1 101050 83
2009-05-08 07:00:05 51°14.439 2°54.875 9 282 12.1 101050 83
2009-05-08 07:00:10 51°14.447 2°54.854 11.9 35 12.1 101050 83
2009-05-08 07:00:15 51°14.453 2°54.83 10.6 281 12.1 101050 83
2009-05-08 07:00:20 51°14.46 2°54.806 11.2 34 12.1 101040 83
2009-05-08 07:00:25 51°14.465 2°54.782 9.3 281 12.1 101040 83
2009-05-08 07:00:30 51°14.47 2°54.757 12.9 233 12.1 101040 83
2009-05-08 07:00:35 51°14.472 2°54.731 11.4 284 12.1 101040 83
2009-05-08 07:00:40 51°14.474 2°54.705 10.6 34 12.1 101050 84
2009-05-08 07:00:45 51°14.474 2°54.68 12.5 278 12.1 101050 84
2009-05-08 07:00:50 51°14.473 2°54.655 12.4 318 12.1 101040 84
2009-05-08 07:00:54 51°14.47 2°54.635 12.2 281 12.1 101040 84
2009-05-08 07:01:00 51°14.467 2°54.604 16.4 316 12.1 101040 83
2009-05-08 07:01:05 51°14.463 2°54.578 15.3 282 12.1 101040 83
2009-05-08 07:01:10 51°14.458 2°54.553 12.8 315 12 101030 84
2009-05-08 07:01:15 51°14.454 2°54.528 11.9 280 12 101030 84
2009-05-08 07:01:20 51°14.448 2°54.504 14.5 319 12 101030 84
2009-05-08 07:01:25 51°14.44 2°54.481 14.8 279 12 101030 84
2009-05-08 07:01:30 51°14.432 2°54.458 15.4 321 12 101010 84
2009-05-08 07:01:35 51°14.424 2°54.435 15.1 278 12 101010 84
2009-05-08 07:01:40 51°14.414 2°54.414 12.5 323 12 101000 84
2009-05-08 07:01:45 51°14.405 2°54.392 15.4 282 12 101000 84
2009-05-08 07:01:50 51°14.395 2°54.371 14.8 324 12 101010 84
2009-05-08 07:01:55 51°14.384 2°54.351 13.8 281 12 101010 84
2009-05-08 07:02:00 51°14.373 2°54.331 13.6 324 12 101010 84
2009-05-08 07:02:05 51°14.361 2°54.312 14.4 281 12 101010 84
2009-05-08 07:02:10 51°14.35 2°54.293 13.4 325 12 101010 84
2009-05-08 07:02:15 51°14.337 2°54.275 16.3 283 12 101010 84
2009-05-08 07:02:20 51°14.325 2°54.256 11.8 325 12 101010 84
2009-05-08 07:02:25 51°14.313 2°54.238 15.4 284 12 101010 84
2009-05-08 07:02:30 51°14.301 2°54.22 12.5 325 11.9 101010 84
2009-05-08 07:02:35 51°14.289 2°54.201 12.9 279 11.9 101010 84
2009-05-08 07:02:40 51°14.276 2°54.182 15.6 324 11.9 101010 84
2009-05-08 07:02:45 51°14.264 2°54.163 12.6 280 11.9 101010 84
2009-05-08 07:02:50 51°14.252 2°54.143 14.6 323 11.9 101000 84
2009-05-08 07:02:55 51°14.24 2°54.123 15.5 283 11.9 101000 84
2009-05-08 07:03:00 51°14.228 2°54.104 16.3 324 11.9 101020 85
2009-05-08 07:03:05 51°14.217 2°54.084 12.6 281 11.9 101020 85
2009-05-08 07:03:10 51°14.205 2°54.065 12.8 320 11.9 101010 85
2009-05-08 07:03:15 51°14.193 2°54.045 13.2 285 11.9 101010 85
2009-05-08 07:03:20 51°14.181 2°54.025 12.7 323 11.9 101020 85
2009-05-08 07:03:25 51°14.168 2°54.006 16.1 281 11.9 101020 85
2009-05-08 07:03:30 51°14.157 2°53.986 13.6 328 11.9 101010 85
2009-05-08 07:03:35 51°14.144 2°53.966 14.1 285 11.9 101010 85
2009-05-08 07:03:40 51°14.132 2°53.946 16.6 329 11.9 101010 85
2009-05-08 07:03:45 51°14.121 2°53.926 17.5 281 11.9 101010 85
2009-05-08 07:03:50 51°14.109 2°53.906 15.4 325 12 101010 85
2009-05-08 07:03:55 51°14.098 2°53.886 16.3 280 12 101010 85
2009-05-08 07:04:00 51°14.086 2°53.865 14.3 323 11.9 101020 85
2009-05-08 07:04:05 51°14.075 2°53.844 14.5 283 11.9 101020 85
2009-05-08 07:04:10 51°14.064 2°53.823 17.6 324 11.9 101010 85
2009-05-08 07:04:15 51°14.053 2°53.802 13.7 282 11.9 101010 85
2009-05-08 07:04:20 51°14.042 2°53.781 15.2 325 11.9 101010 85
2009-05-08 07:04:25 51°14.031 2°53.76 16.3 280 11.9 101010 85
2009-05-08 07:04:30 51°14.02 2°53.738 17.2 324 11.9 101000 85
2009-05-08 07:04:35 51°14.009 2°53.717 13.4 280 11.9 101000 85
2009-05-08 07:04:40 51°13.999 2°53.695 15.6 322 11.9 101010 84
2009-05-08 07:04:45 51°13.988 2°53.674 16.8 284 11.9 101010 84
2009-05-08 07:04:50 51°13.977 2°53.653 17.5 325 11.9 100990 84
2009-05-08 07:04:55 51°13.965 2°53.632 13.9 282 11.9 100990 84
2009-05-08 07:05:00 51°13.955 2°53.611 17.5 325 11.9 101000 85
2009-05-08 07:05:05 51°13.944 2°53.589 13.7 279 11.9 101000 85
2009-05-08 07:05:10 51°13.932 2°53.568 18.3 325 11.9 100990 85
2009-05-08 07:05:15 51°13.921 2°53.547 13.9 285 11.9 100990 85
2009-05-08 07:05:20 51°13.91 2°53.526 17.6 323 11.9 101010 84
2009-05-08 07:05:25 51°13.899 2°53.505 16.6 283 11.9 101010 84
2009-05-08 07:05:30 51°13.888 2°53.484 14.3 325 11.9 101000 85
2009-05-08 07:05:34 51°13.879 2°53.467 14.1 283 11.9 101000 85
2009-05-08 07:05:40 51°13.866 2°53.441 12.8 326 11.9 101000 85
2009-05-08 07:05:45 51°13.855 2°53.42 16.4 281 11.9 101000 85
2009-05-08 07:05:50 51°13.844 2°53.399 12.8 326 11.9 101010 84
2009-05-08 07:05:55 51°13.833 2°53.378 15.1 284 11.9 101010 84
2009-05-08 07:06:00 51°13.822 2°53.356 13.2 326 12 101020 85
2009-05-08 07:06:05 51°13.811 2°53.335 14.1 279 12 101020 85
2009-05-08 07:06:10 51°13.8 2°53.313 16.2 325 12 101010 85
2009-05-08 07:06:15 51°13.789 2°53.292 14.4 279 12 101010 85
2009-05-08 07:06:20 51°13.778 2°53.271 15.2 326 12 101000 85
2009-05-08 07:06:25 51°13.767 2°53.25 15.5 279 12 101000 85
2009-05-08 07:06:30 51°13.755 2°53.229 17.9 328 12 101020 84
2009-05-08 07:06:35 51°13.744 2°53.207 14.5 282 12 101020 84
2009-05-08 07:06:40 51°13.733 2°53.186 13.8 323 12 101010 85
2009-05-08 07:06:45 51°13.722 2°53.165 12.6 280 12 101010 85
2009-05-08 07:06:50 51°13.71 2°53.144 14.6 325 12 101000 85
2009-05-08 07:06:55 51°13.699 2°53.123 15.6 278 12 101000 85
2009-05-08 07:07:00 51°13.689 2°53.104 13.6 323 12 101010 85
2009-05-08 07:07:05 51°13.68 2°53.085 15.2 285 12 101010 85
2009-05-08 07:07:10 51°13.671 2°53.068 12 323 12 101010 85
2009-05-08 07:07:15 51°13.663 2°53.052 15.2 285 12 101010 85
2009-05-08 07:07:20 51°13.655 2°53.036 11.7 326 12 101000 85
2009-05-08 07:07:25 51°13.648 2°53.022 13.4 283 12 101000 85
2009-05-08 07:07:30 51°13.641 2°53.008 11.3 324 12 101000 85
2009-05-08 07:07:35 51°13.634 2°52.995 11.6 281 12 101000 85
2009-05-08 07:07:40 51°13.627 2°52.983 14.5 322 12 101010 85
2009-05-08 07:07:45 51°13.621 2°52.97 10.9 283 12 101010 85
2009-05-08 07:07:50 51°13.615 2°52.958 10.5 323 12 101020 85
2009-05-08 07:07:55 51°13.609 2°52.947 13.1 281 12 101020 85
2009-05-08 07:08:00 51°13.603 2°52.936 12.6 323 12 101020 85
2009-05-08 07:08:05 51°13.597 2°52.926 12.8 278 12 101020 85
2009-05-08 07:08:10 51°13.591 2°52.916 10.7 325 12 101000 85
2009-05-08 07:08:15 51°13.585 2°52.907 10.5 281 12 101000 85
2009-05-08 07:08:20 51°13.58 2°52.897 9.7 329 12 101030 85
2009-05-08 07:08:25 51°13.574 2°52.888 11.2 281 12 101030 85
2009-05-08 07:08:30 51°13.569 2°52.878 9 328 12 101040 86
2009-05-08 07:08:35 51°13.563 2°52.869 13 282 12 101040 86
2009-05-08 07:08:40 51°13.558 2°52.86 9.8 326 12 101020 86
2009-05-08 07:08:45 51°13.553 2°52.85 10.7 286 12 101020 86
2009-05-08 07:08:50 51°13.548 2°52.841 10.6 317 12 101040 86
2009-05-08 07:08:55 51°13.543 2°52.832 10.1 280 12 101040 86
2009-05-08 07:09:00 51°13.538 2°52.823 11.6 325 12 101030 86
2009-05-08 07:09:05 51°13.533 2°52.815 13.9 285 12 101030 86
2009-05-08 07:09:10 51°13.528 2°52.806 13.5 324 12 101040 86
2009-05-08 07:09:15 51°13.524 2°52.797 10.7 280 12 101040 86
2009-05-08 07:09:20 51°13.519 2°52.789 10.6 318 12 101030 86
2009-05-08 07:09:25 51°13.515 2°52.781 12.7 283 12 101030 86
2009-05-08 07:09:30 51°13.511 2°52.773 9.6 323 12 101020 86
2009-05-08 07:09:35 51°13.507 2°52.766 11.8 284 12 101020 86
2009-05-08 07:09:40 51°13.503 2°52.758 10.6 322 12 101020 85
2009-05-08 07:09:45 51°13.499 2°52.75 10.1 277 12 101020 85
2009-05-08 07:09:50 51°13.495 2°52.743 10.7 324 12 101020 86
2009-05-08 07:09:55 51°13.492 2°52.735 11 280 12 101020 86
2009-05-08 07:10:00 51°13.488 2°52.728 10.9 327 12 101020 86
2009-05-08 07:10:05 51°13.484 2°52.722 9.6 280 12 101020 86
2009-05-08 07:10:10 51°13.48 2°52.715 11.6 325 12.1 101030 86
2009-05-08 07:10:15 51°13.477 2°52.709 8.8 282 12.1 101030 86
2009-05-08 07:10:20 51°13.473 2°52.703 11 326 12.1 101030 86
2009-05-08 07:10:25 51°13.47 2°52.697 8.3 285 12.1 101030 86
2009-05-08 07:10:30 51°13.466 2°52.691 11.2 324 12.1 101020 86
2009-05-08 07:10:35 51°13.463 2°52.685 8.4 281 12.1 101020 86
2009-05-08 07:10:40 51°13.46 2°52.679 7.8 323 12.1 101030 86
2009-05-08 07:10:45 51°13.456 2°52.674 10.8 280 12.1 101030 86
2009-05-08 07:10:50 51°13.453 2°52.669 11.3 326 12.1 101030 86
2009-05-08 07:10:55 51°13.45 2°52.664 8.6 285 12.1 101030 86
2009-05-08 07:11:00 51°13.447 2°52.659 10.1 324 12.1 101040 86
2009-05-08 07:11:05 51°13.444 2°52.653 12 284 12.1 101040 86
2009-05-08 07:11:10 51°13.441 2°52.649 13 326 12.1 101040 86
2009-05-08 07:11:15 51°13.439 2°52.643 13 279 12.1 101040 86
2009-05-08 07:11:20 51°13.436 2°52.639 10.9 328 12.1 101030 86
2009-05-08 07:11:25 51°13.434 2°52.634 11.4 284 12.1 101030 86
2009-05-08 07:11:30 51°13.431 2°52.63 10.9 326 12.1 101030 86
2009-05-08 07:11:35 51°13.429 2°52.625 9.1 282 12.1 101030 86
2009-05-08 07:11:40 51°13.427 2°52.621 10.9 321 12.1 101030 86
2009-05-08 07:11:45 51°13.425 2°52.616 10.6 283 12.1 101030 86
2009-05-08 07:11:50 51°13.423 2°52.612 10.1 319 12.1 101040 85
2009-05-08 07:11:55 51°13.421 2°52.608 9.2 281 12.1 101040 85
2009-05-08 07:12:00 51°13.419 2°52.604 9.2 319 12.1 101030 85
2009-05-08 07:12:05 51°13.416 2°52.599 10.6 280 12.1 101030 85
2009-05-08 07:12:10 51°13.414 2°52.594 10.6 320 12.1 101050 85
2009-05-08 07:12:15 51°13.412 2°52.589 12 286 12.1 101050 85
2009-05-08 07:12:20 51°13.41 2°52.584 9.4 322 12.1 101030 85
2009-05-08 07:12:25 51°13.407 2°52.579 10.5 279 12.1 101030 85
2009-05-08 07:12:30 51°13.405 2°52.573 7.8 321 12.1 101030 85
2009-05-08 07:12:35 51°13.402 2°52.568 8.4 283 12.1 101030 85
2009-05-08 07:12:40 51°13.399 2°52.563 10.8 320 12.1 101030 85
2009-05-08 07:12:45 51°13.396 2°52.557 10 283 12.1 101030 85
2009-05-08 07:12:50 51°13.394 2°52.552 11.2 324 12.1 101030 85
2009-05-08 07:12:55 51°13.391 2°52.546 8.2 285 12.1 101030 85
2009-05-08 07:13:00 51°13.388 2°52.541 8.1 326 12.1 101040 85
2009-05-08 07:13:05 51°13.385 2°52.535 8 280 12.1 101040 85
2009-05-08 07:13:10 51°13.382 2°52.528 10.9 323 12.1 101050 85
2009-05-08 07:13:14 51°13.379 2°52.523 9.3 282 12.1 101050 85
2009-05-08 07:13:20 51°13.375 2°52.515 10 322 12.1 101050 85
2009-05-08 07:13:25 51°13.372 2°52.508 10.3 280 12.1 101050 85
2009-05-08 07:13:30 51°13.368 2°52.501 9.5 320 12.1 101050 85
2009-05-08 07:13:35 51°13.365 2°52.494 10.2 284 12.1 101050 85
2009-05-08 07:13:40 51°13.362 2°52.487 13.6 325 12.1 101040 85
2009-05-08 07:13:45 51°13.358 2°52.479 13.5 281 12.1 101040 85
2009-05-08 07:13:50 51°13.355 2°52.471 13 325 12.1 101050 85
2009-05-08 07:13:55 51°13.351 2°52.464 11.3 285 12.1 101050 85
2009-05-08 07:14:00 51°13.348 2°52.456 14.2 321 12.1 101030 85
2009-05-08 07:14:05 51°13.344 2°52.448 13 282 12.1 101030 85
2009-05-08 07:14:10 51°13.34 2°52.441 12.3 327 12.1 101030 85
2009-05-08 07:14:15 51°13.336 2°52.433 13.7 281 12.1 101030 85
2009-05-08 07:14:20 51°13.332 2°52.425 10.2 324 12.1 101030 85
2009-05-08 07:14:25 51°13.329 2°52.417 12.4 277 12.1 101030 85
2009-05-08 07:14:30 51°13.325 2°52.409 10.3 325 12.1 101030 85
2009-05-08 07:14:35 51°13.321 2°52.4 13.2 285 12.1 101030 85
2009-05-08 07:14:40 51°13.317 2°52.392 12.7 322 12.1 101030 84
2009-05-08 07:14:45 51°13.314 2°52.383 12.4 285 12.1 101030 84
2009-05-08 07:14:50 51°13.31 2°52.375 9.3 321 12.1 101030 84
2009-05-08 07:14:55 51°13.307 2°52.366 8.9 281 12.1 101030 84
2009-05-08 07:15:00 51°13.303 2°52.358 10.4 318 12.1 101030 84
2009-05-08 07:15:05 51°13.3 2°52.349 11.3 284 12.1 101030 84
2009-05-08 07:15:10 51°13.296 2°52.34 11.1 316 12.1 101040 85
2009-05-08 07:15:14 51°13.294 2°52.333 8.5 284 12.1 101040 85
2009-05-08 07:15:20 51°13.29 2°52.322 9.1 36 12.1 101040 85
2009-05-08 07:15:25 51°13.287 2°52.313 10.8 280 12.1 101040 85
2009-05-08 07:15:30 51°13.283 2°52.304 10.9 317 12.2 101040 86
2009-05-08 07:15:35 51°13.28 2°52.295 12.3 286 12.2 101040 86
2009-05-08 07:15:40 51°13.277 2°52.286 9.4 320 12.2 101050 86
2009-05-08 07:15:45 51°13.273 2°52.277 9.5 278 12.2 101050 86
2009-05-08 07:15:50 51°13.27 2°52.267 10.9 322 12.2 101050 86
2009-05-08 07:15:55 51°13.267 2°52.258 11.7 278 12.2 101050 86
2009-05-08 07:16:00 51°13.263 2°52.249 11.9 319 12.2 101040 85
2009-05-08 07:16:05 51°13.26 2°52.24 13.1 280 12.2 101040 85
2009-05-08 07:16:10 51°13.257 2°52.231 13.5 321 12.2 101040 86
2009-05-08 07:16:15 51°13.253 2°52.222 12.7 281 12.2 101040 86
2009-05-08 07:16:20 51°13.249 2°52.213 12.8 319 12.2 101040 86
2009-05-08 07:16:25 51°13.246 2°52.204 10.7 281 12.2 101040 86
2009-05-08 07:16:30 51°13.243 2°52.196 13.1 321 12.2 101050 85
2009-05-08 07:16:35 51°13.239 2°52.187 12.6 282 12.2 101050 85
2009-05-08 07:16:40 51°13.236 2°52.178 11.8 320 12.2 101040 85
2009-05-08 07:16:45 51°13.232 2°52.17 12 283 12.2 101040 85
2009-05-08 07:16:50 51°13.229 2°52.161 11.1 323 12.2 101040 85
2009-05-08 07:16:55 51°13.225 2°52.152 8.4 279 12.2 101040 85
2009-05-08 07:17:00 51°13.221 2°52.144 12 321 12.2 101050 85
2009-05-08 07:17:05 51°13.218 2°52.135 10.6 279 12.2 101050 85
2009-05-08 07:17:10 51°13.214 2°52.127 10.3 323 12.2 101040 85
2009-05-08 07:17:14 51°13.211 2°52.12 12.1 284 12.2 101040 85
2009-05-08 07:17:20 51°13.206 2°52.11 10.2 325 12.2 101050 86
2009-05-08 07:17:25 51°13.203 2°52.101 10.7 282 12.2 101050 86
2009-05-08 07:17:30 51°13.199 2°52.092 14.2 325 12.2 101050 85
2009-05-08 07:17:35 51°13.195 2°52.084 13.8 281 12.2 101050 85
2009-05-08 07:17:40 51°13.192 2°52.076 12.8 327 12.2 101050 85
2009-05-08 07:17:45 51°13.188 2°52.068 12.6 282 12.2 101050 85
2009-05-08 07:17:50 51°13.184 2°52.059 11.8 327 12.2 101050 85
2009-05-08 07:17:55 51°13.18 2°52.051 10.5 279 12.2 101050 85
2009-05-08 07:18:00 51°13.176 2°52.042 12 326 12.2 101050 85
2009-05-08 07:18:05 51°13.172 2°52.034 11.4 280 12.2 101050 85
2009-05-08 07:18:10 51°13.168 2°52.026 10.8 325 12.2 101050 85
2009-05-08 07:18:15 51°13.164 2°52.018 8.8 282 12.2 101050 85
2009-05-08 07:18:20 51°13.16 2°52.009 9 322 12.2 101060 85
2009-05-08 07:18:25 51°13.156 2°52.001 9.7 278 12.2 101060 85
2009-05-08 07:18:30 51°13.152 2°51.993 10.7 324 12.2 101060 85
2009-05-08 07:18:35 51°13.148 2°51.984 10.4 285 12.2 101060 85
2009-05-08 07:18:40 51°13.145 2°51.976 12.9 329 12.2 101060 85
2009-05-08 07:18:45 51°13.141 2°51.968 10.1 282 12.2 101060 85
2009-05-08 07:18:50 51°13.137 2°51.959 10 331 12.3 101060 85
2009-05-08 07:18:55 51°13.133 2°51.95 9.8 282 12.3 101060 85
2009-05-08 07:19:00 51°13.129 2°51.942 10 324 12.3 101060 85
2009-05-08 07:19:05 51°13.125 2°51.933 12 279 12.3 101060 85
2009-05-08 07:19:10 51°13.121 2°51.924 11 326 12.2 101060 84
2009-05-08 07:19:14 51°13.118 2°51.917 12.7 286 12.2 101060 84
2009-05-08 07:19:20 51°13.113 2°51.907 12.1 325 12.3 101060 84
2009-05-08 07:19:25 51°13.11 2°51.898 9.3 282 12.3 101060 84
2009-05-08 07:19:30 51°13.106 2°51.89 9.1 325 12.3 101060 84
2009-05-08 07:19:35 51°13.102 2°51.881 11.1 283 12.3 101060 84
2009-05-08 07:19:40 51°13.098 2°51.872 9.1 323 12.3 101060 84
2009-05-08 07:19:45 51°13.094 2°51.864 9.5 285 12.3 101060 84
2009-05-08 07:19:50 51°13.09 2°51.855 9.9 323 12.3 101050 84
2009-05-08 07:19:55 51°13.086 2°51.846 11.8 285 12.3 101050 84
2009-05-08 07:20:00 51°13.082 2°51.838 9.9 324 12.3 101050 84
2009-05-08 07:20:05 51°13.078 2°51.83 10.2 285 12.3 101050 84
2009-05-08 07:20:10 51°13.074 2°51.821 10.1 326 12.3 101070 85
2009-05-08 07:20:15 51°13.07 2°51.812 9.3 278 12.3 101070 85
2009-05-08 07:20:20 51°13.066 2°51.804 11.5 328 12.3 101060 85
2009-05-08 07:20:25 51°13.062 2°51.795 10.4 281 12.3 101060 85
2009-05-08 07:20:30 51°13.058 2°51.787 9.7 330 12.3 101050 85
2009-05-08 07:20:35 51°13.054 2°51.778 10.9 285 12.3 101050 85
2009-05-08 07:20:40 51°13.05 2°51.77 9.1 326 12.3 101060 84
2009-05-08 07:20:45 51°13.047 2°51.761 11.1 284 12.3 101060 84
2009-05-08 07:20:50 51°13.043 2°51.752 12.1 326 12.3 101060 84
2009-05-08 07:20:55 51°13.039 2°51.744 10.1 283 12.3 101060 84
2009-05-08 07:21:00 51°13.035 2°51.735 9.7 327 12.3 101060 83
2009-05-08 07:21:05 51°13.031 2°51.726 9.5 280 12.3 101060 83
2009-05-08 07:21:10 51°13.027 2°51.718 10.8 329 12.3 101060 83
2009-05-08 07:21:14 51°13.024 2°51.711 10.9 284 12.3 101060 83
2009-05-08 07:21:20 51°13.019 2°51.701 9.3 332 12.3 101060 83
2009-05-08 07:21:25 51°13.015 2°51.692 10.8 285 12.3 101060 83
2009-05-08 07:21:30 51°13.011 2°51.684 10.8 330 12.4 101060 84
2009-05-08 07:21:35 51°13.007 2°51.675 10.7 279 12.4 101060 84
2009-05-08 07:21:40 51°13.003 2°51.667 11.1 331 12.4 101060 84
2009-05-08 07:21:45 51°12.999 2°51.658 10.1 281 12.4 101060 84
2009-05-08 07:21:50 51°12.996 2°51.65 12 329 12.4 101070 84
2009-05-08 07:21:55 51°12.992 2°51.641 9.7 281 12.4 101070 84
2009-05-08 07:22:00 51°12.988 2°51.632 11.4 330 12.4 101070 84
2009-05-08 07:22:05 51°12.984 2°51.624 10.7 276 12.4 101070 84
2009-05-08 07:22:10 51°12.98 2°51.615 9.9 329 12.4 101070 84
2009-05-08 07:22:15 51°12.976 2°51.606 12.4 283 12.4 101070 84
2009-05-08 07:22:20 51°12.972 2°51.598 10 331 12.4 101070 84
2009-05-08 07:22:25 51°12.968 2°51.589 12.5 281 12.4 101070 84
2009-05-08 07:22:30 51°12.964 2°51.58 13.2 331 12.4 101060 84
2009-05-08 07:22:35 51°12.96 2°51.572 12.1 284 12.4 101060 84
2009-05-08 07:22:40 51°12.956 2°51.564 12.4 333 12.4 101060 83
2009-05-08 07:22:45 51°12.952 2°51.556 13 283 12.4 101060 83
2009-05-08 07:22:50 51°12.948 2°51.547 13.4 331 12.4 101070 83
2009-05-08 07:22:55 51°12.944 2°51.539 13.2 286 12.4 101070 83
2009-05-08 07:23:00 51°12.94 2°51.531 12.7 332 12.4 101060 83
2009-05-08 07:23:05 51°12.936 2°51.522 12.1 284 12.4 101060 83
2009-05-08 07:23:10 51°12.932 2°51.514 10.4 332 12.4 101070 83
2009-05-08 07:23:14 51°12.929 2°51.507 11.6 283 12.4 101070 83
2009-05-08 07:23:20 51°12.924 2°51.498 10.6 332 12.4 101060 82
2009-05-08 07:23:25 51°12.92 2°51.489 12.8 286 12.4 101060 82
2009-05-08 07:23:30 51°12.916 2°51.481 12 328 12.5 101070 82
2009-05-08 07:23:35 51°12.913 2°51.472 11.3 279 12.5 101070 82
2009-05-08 07:23:40 51°12.909 2°51.464 11.8 329 12.5 101070 82
2009-05-08 07:23:45 51°12.905 2°51.455 9.4 281 12.5 101070 82
2009-05-08 07:23:50 51°12.901 2°51.447 10.8 328 12.5 101060 82
2009-05-08 07:23:55 51°12.897 2°51.439 12.2 282 12.5 101060 82
2009-05-08 07:24:00 51°12.894 2°51.43 12.8 329 12.5 101070 81
2009-05-08 07:24:05 51°12.889 2°51.422 9.9 282 12.5 101070 81
2009-05-08 07:24:10 51°12.886 2°51.414 10.5 330 12.5 101060 80
2009-05-08 07:24:15 51°12.882 2°51.405 12.1 285 12.5 101060 80
2009-05-08 07:24:20 51°12.878 2°51.397 11.9 328 12.5 101060 80
2009-05-08 07:24:25 51°12.874 2°51.389 12.6 281 12.5 101060 80
2009-05-08 07:24:30 51°12.87 2°51.38 10.9 326 12.5 101070 80
2009-05-08 07:24:35 51°12.867 2°51.371 9.2 281 12.5 101070 80
2009-05-08 07:24:40 51°12.863 2°51.363 9.9 326 12.5 101060 80
2009-05-08 07:24:45 51°12.86 2°51.354 11.5 282 12.5 101060 80
2009-05-08 07:24:50 51°12.857 2°51.345 12.6 332 12.6 101070 80
2009-05-08 07:24:55 51°12.854 2°51.336 12.2 277 12.6 101070 80
2009-05-08 07:25:00 51°12.85 2°51.327 13.4 330 12.6 101070 81
2009-05-08 07:25:05 51°12.847 2°51.318 10.2 284 12.6 101070 81
2009-05-08 07:25:10 51°12.844 2°51.309 11.8 329 12.6 101070 80
2009-05-08 07:25:15 51°12.841 2°51.3 11.9 281 12.6 101070 80
2009-05-08 07:25:20 51°12.838 2°51.292 10.3 331 12.6 101080 79
2009-05-08 07:25:25 51°12.835 2°51.283 10.8 279 12.6 101080 79
2009-05-08 07:25:30 51°12.832 2°51.274 13.6 329 12.6 101070 79
2009-05-08 07:25:35 51°12.829 2°51.264 11.3 279 12.6 101070 79
2009-05-08 07:25:40 51°12.826 2°51.255 11.7 331 12.6 101060 79
2009-05-08 07:25:45 51°12.823 2°51.247 10.6 281 12.6 101060 79
2009-05-08 07:25:50 51°12.82 2°51.237 11.6 334 12.6 101060 79
2009-05-08 07:25:55 51°12.817 2°51.228 13.5 279 12.6 101060 79
2009-05-08 07:26:00 51°12.814 2°51.219 13.3 332 12.6 101060 78
2009-05-08 07:26:05 51°12.811 2°51.21 12 277 12.6 101060 78
2009-05-08 07:26:10 51°12.808 2°51.201 13.2 330 12.6 101060 78
2009-05-08 07:26:15 51°12.806 2°51.192 11.9 279 12.6 101060 78
2009-05-08 07:26:20 51°12.803 2°51.183 14.1 334 12.6 101060 78
2009-05-08 07:26:25 51°12.8 2°51.173 13.2 281 12.6 101060 78
2009-05-08 07:26:30 51°12.797 2°51.164 12.6 329 12.6 101070 77
2009-05-08 07:26:34 51°12.794 2°51.157 13.3 285 12.6 101070 77
2009-05-08 07:26:40 51°12.791 2°51.146 12.9 328 12.6 101060 77
2009-05-08 07:26:45 51°12.788 2°51.137 11.6 285 12.6 101060 77
2009-05-08 07:26:50 51°12.785 2°51.128 13.3 325 12.6 101060 76
2009-05-08 07:26:55 51°12.782 2°51.119 11.7 278 12.6 101060 76
2009-05-08 07:27:00 51°12.779 2°51.11 11.2 327 12.6 101060 77
2009-05-08 07:27:05 51°12.777 2°51.1 11.2 279 12.6 101060 77
2009-05-08 07:27:10 51°12.774 2°51.091 9.9 325 12.6 101060 76
2009-05-08 07:27:15 51°12.771 2°51.082 10.8 281 12.6 101060 76
2009-05-08 07:27:20 51°12.768 2°51.073 13 327 12.6 101050 76
2009-05-08 07:27:25 51°12.765 2°51.063 14.2 278 12.6 101050 76
2009-05-08 07:27:30 51°12.762 2°51.054 12.6 327 12.7 101060 77
2009-05-08 07:27:35 51°12.759 2°51.045 11.1 281 12.7 101060 77
2009-05-08 07:27:40 51°12.756 2°51.036 13.8 327 12.7 101070 78
2009-05-08 07:27:45 51°12.754 2°51.026 14.8 278 12.7 101070 78
2009-05-08 07:27:50 51°12.751 2°51.017 13.6 327 12.7 101060 77
2009-05-08 07:27:55 51°12.748 2°51.008 13 281 12.7 101060 77
2009-05-08 07:28:00 51°12.745 2°50.999 13.2 325 12.7 101050 77
2009-05-08 07:28:05 51°12.742 2°50.99 13 281 12.7 101050 77
2009-05-08 07:28:10 51°12.739 2°50.981 13.4 322 12.7 101060 76
2009-05-08 07:28:15 51°12.736 2°50.971 10.8 277 12.7 101060 76
2009-05-08 07:28:20 51°12.733 2°50.962 13.4 324 12.7 101050 76
2009-05-08 07:28:25 51°12.731 2°50.953 14.4 284 12.7 101050 76
2009-05-08 07:28:30 51°12.728 2°50.944 11.5 327 12.7 101050 76
2009-05-08 07:28:34 51°12.726 2°50.936 10.4 277 12.7 101050 76
2009-05-08 07:28:40 51°12.723 2°50.925 12.9 328 12.7 101050 75
2009-05-08 07:28:45 51°12.72 2°50.916 13.7 277 12.7 101050 75
2009-05-08 07:28:50 51°12.717 2°50.907 12.6 330 12.7 101050 75
2009-05-08 07:28:55 51°12.714 2°50.898 12 278 12.7 101050 75
2009-05-08 07:29:00 51°12.711 2°50.888 14 328 12.7 101050 76
2009-05-08 07:29:05 51°12.708 2°50.879 13 284 12.7 101050 76
2009-05-08 07:29:10 51°12.705 2°50.87 11.5 331 12.7 101060 76
2009-05-08 07:29:15 51°12.702 2°50.861 10.9 280 12.7 101060 76
2009-05-08 07:29:20 51°12.699 2°50.852 12 327 12.7 101050 75
2009-05-08 07:29:25 51°12.696 2°50.843 14.2 282 12.7 101050 75
2009-05-08 07:29:30 51°12.693 2°50.834 15.1 329 12.7 101060 75
2009-05-08 07:29:35 51°12.69 2°50.825 14.5 285 12.7 101060 75
2009-05-08 07:29:40 51°12.687 2°50.816 12.1 327 12.7 101060 76
2009-05-08 07:29:45 51°12.684 2°50.806 14.1 281 12.7 101060 76
2009-05-08 07:29:50 51°12.681 2°50.797 11.7 328 12.7 101050 75
2009-05-08 07:29:55 51°12.678 2°50.788 11.7 286 12.7 101050 75
2009-05-08 07:30:00 51°12.675 2°50.779 13.4 328 12.7 101050 73
2009-05-08 07:30:05 51°12.672 2°50.77 13.7 282 12.7 101050 73
2009-05-08 07:30:10 51°12.669 2°50.761 13.6 329 12.7 101050 72
2009-05-08 07:30:15 51°12.666 2°50.752 12.5 282 12.7 101050 72
2009-05-08 07:30:20 51°12.663 2°50.743 13 331 12.7 101060 72
2009-05-08 07:30:25 51°12.66 2°50.734 12.7 280 12.7 101060 72
2009-05-08 07:30:30 51°12.657 2°50.725 10.5 325 12.7 101050 72
2009-05-08 07:30:34 51°12.654 2°50.718 10.8 278 12.7 101050 72
2009-05-08 07:30:40 51°12.651 2°50.707 12.8 328 12.7 101050 72
2009-05-08 07:30:45 51°12.648 2°50.698 14.2 278 12.7 101050 72
2009-05-08 07:30:50 51°12.645 2°50.689 14.1 327 12.7 101050 73
2009-05-08 07:30:55 51°12.642 2°50.68 11.9 285 12.7 101050 73
2009-05-08 07:31:00 51°12.639 2°50.671 12.2 328 12.7 101060 73
2009-05-08 07:31:05 51°12.636 2°50.662 12.8 282 12.7 101060 73
2009-05-08 07:31:10 51°12.633 2°50.653 11.4 325 12.8 101060 73
2009-05-08 07:31:15 51°12.63 2°50.644 13.3 280 12.8 101060 73
2009-05-08 07:31:20 51°12.627 2°50.635 12.5 328 12.7 101040 72
2009-05-08 07:31:25 51°12.624 2°50.626 12.7 286 12.7 101040 72
2009-05-08 07:31:30 51°12.621 2°50.617 13.2 327 12.8 101050 72
2009-05-08 07:31:35 51°12.618 2°50.608 13.5 279 12.8 101050 72
2009-05-08 07:31:40 51°12.615 2°50.599 12.1 327 12.8 101060 73
2009-05-08 07:31:45 51°12.612 2°50.59 11.9 280 12.8 101060 73
2009-05-08 07:31:50 51°12.609 2°50.581 13.6 326 12.8 101050 73
2009-05-08 07:31:55 51°12.606 2°50.572 11.8 281 12.8 101050 73
2009-05-08 07:32:00 51°12.604 2°50.563 10.8 325 12.8 101050 72
2009-05-08 07:32:05 51°12.601 2°50.555 12.3 278 12.8 101050 72
2009-05-08 07:32:10 51°12.598 2°50.546 14.1 324 12.7 101050 71
2009-05-08 07:32:15 51°12.595 2°50.537 13.4 281 12.7 101050 71
2009-05-08 07:32:20 51°12.592 2°50.528 13.5 327 12.8 101050 71
2009-05-08 07:32:25 51°12.589 2°50.519 11.8 284 12.8 101050 71
2009-05-08 07:32:30 51°12.586 2°50.51 12.6 330 12.8 101050 71
2009-05-08 07:32:34 51°12.584 2°50.503 10.9 276 12.8 101050 71
2009-05-08 07:32:40 51°12.58 2°50.492 12.3 329 12.8 101040 71
2009-05-08 07:32:45 51°12.577 2°50.483 11.7 281 12.8 101040 71
2009-05-08 07:32:50 51°12.574 2°50.474 12.1 329 12.8 101050 71
2009-05-08 07:32:55 51°12.571 2°50.465 12.1 282 12.8 101050 71
2009-05-08 07:33:00 51°12.568 2°50.456 14.2 331 12.8 101060 72
2009-05-08 07:33:05 51°12.565 2°50.447 15 284 12.8 101060 72
2009-05-08 07:33:10 51°12.562 2°50.439 12.5 329 12.9 101060 72
2009-05-08 07:33:15 51°12.559 2°50.43 12.5 285 12.9 101060 72
2009-05-08 07:33:20 51°12.556 2°50.421 12.5 330 12.8 101040 72
2009-05-08 07:33:25 51°12.553 2°50.412 11.7 277 12.8 101040 72
2009-05-08 07:33:30 51°12.549 2°50.402 13.7 329 12.9 101060 72
2009-05-08 07:33:35 51°12.546 2°50.393 12.2 285 12.9 101060 72
2009-05-08 07:33:40 51°12.543 2°50.385 14.3 330 12.8 101050 72
2009-05-08 07:33:45 51°12.54 2°50.376 11.3 285 12.8 101050 72
2009-05-08 07:33:50 51°12.537 2°50.367 11.1 328 12.9 101050 72
2009-05-08 07:33:55 51°12.534 2°50.357 13.7 277 12.9 101050 72
2009-05-08 07:34:00 51°12.531 2°50.348 11.7 328 12.8 101060 72
2009-05-08 07:34:05 51°12.528 2°50.339 13.6 277 12.8 101060 72
2009-05-08 07:34:10 51°12.525 2°50.33 11.8 330 12.8 101040 71
2009-05-08 07:34:15 51°12.522 2°50.321 13.1 278 12.8 101040 71
2009-05-08 07:34:20 51°12.519 2°50.312 12.7 330 12.8 101040 71
2009-05-08 07:34:25 51°12.516 2°50.303 11.2 281 12.8 101040 71
2009-05-08 07:34:30 51°12.513 2°50.294 12.6 329 12.8 101040 71
2009-05-08 07:34:35 51°12.51 2°50.285 13.3 283 12.8 101040 71
2009-05-08 07:34:40 51°12.507 2°50.276 13 328 12.8 101040 71
2009-05-08 07:34:45 51°12.504 2°50.267 12.3 282 12.8 101040 71
2009-05-08 07:34:50 51°12.501 2°50.258 11.7 329 12.8 101050 72
2009-05-08 07:34:55 51°12.498 2°50.249 13.1 279 12.8 101050 72
2009-05-08 07:35:00 51°12.495 2°50.24 12.6 327 12.9 101060 73
2009-05-08 07:35:05 51°12.492 2°50.231 13.7 283 12.9 101060 73
2009-05-08 07:35:10 51°12.489 2°50.222 13.2 327 12.8 101050 73
2009-05-08 07:35:15 51°12.486 2°50.213 14.7 281 12.8 101050 73
2009-05-08 07:35:20 51°12.483 2°50.204 14.4 330 12.9 101040 73
2009-05-08 07:35:25 51°12.481 2°50.195 13.7 283 12.9 101040 73
2009-05-08 07:35:30 51°12.477 2°50.186 12.8 331 12.9 101040 73
2009-05-08 07:35:35 51°12.475 2°50.177 13.9 281 12.9 101040 73
2009-05-08 07:35:40 51°12.471 2°50.168 14.6 329 12.9 101050 73
2009-05-08 07:35:45 51°12.469 2°50.16 13.7 281 12.9 101050 73
2009-05-08 07:35:50 51°12.465 2°50.151 13.1 330 12.8 101050 72
2009-05-08 07:35:54 51°12.463 2°50.144 12.2 281 12.8 101050 72
2009-05-08 07:36:00 51°12.459 2°50.134 11.4 332 12.8 101050 71
2009-05-08 07:36:05 51°12.456 2°50.126 14.1 284 12.8 101050 71
2009-05-08 07:36:10 51°12.452 2°50.117 11.9 330 12.8 101050 71
2009-05-08 07:36:15 51°12.449 2°50.109 11.3 280 12.8 101050 71
2009-05-08 07:36:20 51°12.445 2°50.101 11.8 333 12.8 101050 71
2009-05-08 07:36:25 51°12.442 2°50.093 12 281 12.8 101050 71
2009-05-08 07:36:30 51°12.438 2°50.084 11.3 331 12.8 101060 72
2009-05-08 07:36:35 51°12.435 2°50.076 12 282 12.8 101060 72
2009-05-08 07:36:40 51°12.431 2°50.068 13.9 331 12.9 101060 72
2009-05-08 07:36:45 51°12.427 2°50.06 12.1 285 12.9 101060 72
2009-05-08 07:36:50 51°12.424 2°50.052 11.7 330 12.8 101050 73
2009-05-08 07:36:55 51°12.42 2°50.044 11.5 281 12.8 101050 73
2009-05-08 07:37:00 51°12.417 2°50.036 13.1 333 12.8 101060 72
2009-05-08 07:37:05 51°12.413 2°50.028 11.3 281 12.8 101060 72
2009-05-08 07:37:10 51°12.409 2°50.019 11.2 333 12.8 101060 73
2009-05-08 07:37:15 51°12.405 2°50.011 12.2 284 12.8 101060 73
2009-05-08 07:37:20 51°12.402 2°50.004 11.4 331 12.8 101060 73
2009-05-08 07:37:25 51°12.398 2°49.995 10.6 285 12.8 101060 73
2009-05-08 07:37:30 51°12.395 2°49.987 12.1 331 12.8 101050 73
2009-05-08 07:37:35 51°12.391 2°49.979 10.2 280 12.8 101050 73
2009-05-08 07:37:40 51°12.387 2°49.97 9.6 331 12.8 101060 74
2009-05-08 07:37:45 51°12.384 2°49.962 12.9 280 12.8 101060 74
2009-05-08 07:37:50 51°12.381 2°49.954 12.7 331 12.8 101060 73
2009-05-08 07:37:54 51°12.378 2°49.947 12.7 278 12.8 101060 73
2009-05-08 07:38:00 51°12.374 2°49.937 12.1 332 12.9 101060 74
2009-05-08 07:38:05 51°12.37 2°49.929 13.5 281 12.9 101060 74
2009-05-08 07:38:10 51°12.367 2°49.921 11.2 329 12.9 101060 74
2009-05-08 07:38:15 51°12.363 2°49.913 13 286 12.9 101060 74
2009-05-08 07:38:20 51°12.36 2°49.905 12.9 328 12.8 101060 73
2009-05-08 07:38:25 51°12.356 2°49.897 12.5 285 12.8 101060 73
2009-05-08 07:38:30 51°12.353 2°49.889 11.2 329 12.8 101060 72
2009-05-08 07:38:35 51°12.35 2°49.881 10.5 280 12.8 101060 72
2009-05-08 07:38:40 51°12.347 2°49.873 11 332 12.8 101060 72
2009-05-08 07:38:45 51°12.343 2°49.864 11.9 281 12.8 101060 72
2009-05-08 07:38:50 51°12.34 2°49.856 11.4 331 12.8 101070 73
2009-05-08 07:38:55 51°12.337 2°49.848 10.4 277 12.8 101070 73
2009-05-08 07:39:00 51°12.334 2°49.84 12.6 330 12.8 101060 73
2009-05-08 07:39:05 51°12.33 2°49.832 12.4 285 12.8 101060 73
2009-05-08 07:39:10 51°12.327 2°49.824 11 329 12.8 101060 73
2009-05-08 07:39:15 51°12.324 2°49.816 10.3 278 12.8 101060 73
2009-05-08 07:39:20 51°12.321 2°49.809 10.7 331 12.8 101060 72
2009-05-08 07:39:25 51°12.318 2°49.802 10 280 12.8 101060 72
2009-05-08 07:39:30 51°12.316 2°49.795 9.5 330 12.8 101060 72
2009-05-08 07:39:35 51°12.313 2°49.788 9.1 287 12.8 101060 72
2009-05-08 07:39:40 51°12.311 2°49.782 11.1 334 12.8 101050 73
2009-05-08 07:39:45 51°12.308 2°49.776 11.2 280 12.8 101050 73
2009-05-08 07:39:50 51°12.306 2°49.77 12.1 332 12.9 101060 73
2009-05-08 07:39:54 51°12.304 2°49.766 12 284 12.9 101060 73
2009-05-08 07:40:00 51°12.301 2°49.759 11.9 333 12.9 101070 73
2009-05-08 07:40:05 51°12.299 2°49.754 10.5 276 12.9 101070 73
2009-05-08 07:40:10 51°12.297 2°49.749 10.5 332 12.9 101070 74
2009-05-08 07:40:15 51°12.295 2°49.744 11.3 280 12.9 101070 74
2009-05-08 07:40:20 51°12.293 2°49.739 10.1 331 12.8 101060 73
2009-05-08 07:40:25 51°12.291 2°49.734 10.1 284 12.8 101060 73
2009-05-08 07:40:30 51°12.289 2°49.73 9.8 327 12.8 101060 73
2009-05-08 07:40:35 51°12.287 2°49.726 9.6 280 12.8 101060 73
2009-05-08 07:40:40 51°12.285 2°49.722 9 327 12.8 101060 73
2009-05-08 07:40:45 51°12.283 2°49.718 10 285 12.8 101060 73
2009-05-08 07:40:50 51°12.282 2°49.714 8.8 331 12.8 101060 72
2009-05-08 07:40:55 51°12.28 2°49.71 8.1 280 12.8 101060 72
2009-05-08 07:41:00 51°12.278 2°49.706 11.4 330 12.8 101060 72
2009-05-08 07:41:05 51°12.276 2°49.703 10.9 282 12.8 101060 72
2009-05-08 07:41:10 51°12.275 2°49.7 9.4 330 12.8 101060 72
2009-05-08 07:41:15 51°12.273 2°49.696 9.3 277 12.8 101060 72
2009-05-08 07:41:20 51°12.272 2°49.693 10.5 327 12.8 101070 72
2009-05-08 07:41:25 51°12.27 2°49.69 10.8 282 12.8 101070 72
2009-05-08 07:41:30 51°12.269 2°49.688 8.7 330 12.8 101060 71
2009-05-08 07:41:35 51°12.268 2°49.685 8.7 281 12.8 101060 71
2009-05-08 07:41:40 51°12.266 2°49.682 8.9 329 12.8 101070 71
2009-05-08 07:41:45 51°12.265 2°49.679 9.6 284 12.8 101070 71
2009-05-08 07:41:50 51°12.264 2°49.677 9.3 330 12.8 101060 70
2009-05-08 07:41:54 51°12.263 2°49.675 8.7 279 12.8 101060 70
2009-05-08 07:42:00 51°12.262 2°49.671 8.7 328 12.8 101070 70
2009-05-08 07:42:05 51°12.26 2°49.669 8.8 279 12.8 101070 70
2009-05-08 07:42:10 51°12.259 2°49.667 8.9 327 12.8 101070 70
2009-05-08 07:42:15 51°12.258 2°49.664 8.7 279 12.8 101070 70
2009-05-08 07:42:20 51°12.257 2°49.662 6.7 333 12.9 101070 71
2009-05-08 07:42:25 51°12.256 2°49.66 7.9 279 12.9 101070 71
2009-05-08 07:42:30 51°12.255 2°49.658 9.3 329 12.9 101070 72
2009-05-08 07:42:35 51°12.254 2°49.656 8 279 12.9 101070 72
2009-05-08 07:42:40 51°12.252 2°49.654 8.8 327 12.9 101080 72
2009-05-08 07:42:45 51°12.251 2°49.652 8.6 280 12.9 101080 72
2009-05-08 07:42:50 51°12.25 2°49.65 7.7 328 12.9 101080 72
2009-05-08 07:42:55 51°12.249 2°49.649 8.6 278 12.9 101080 72
2009-05-08 07:43:00 51°12.248 2°49.647 8 330 12.9 101070 73
2009-05-08 07:43:05 51°12.247 2°49.646 9 283 12.9 101070 73
2009-05-08 07:43:10 51°12.246 2°49.644 9.3 332 12.9 101070 73
2009-05-08 07:43:15 51°12.245 2°49.643 8.2 285 12.9 101070 73
2009-05-08 07:43:20 51°12.245 2°49.642 7.7 331 12.9 101070 72
2009-05-08 07:43:25 51°12.243 2°49.641 8.8 282 12.9 101070 72
2009-05-08 07:43:30 51°12.243 2°49.639 9.5 332 12.9 101060 71
2009-05-08 07:43:35 51°12.241 2°49.638 8.4 283 12.9 101060 71
2009-05-08 07:43:40 51°12.24 2°49.637 8.5 334 12.9 101070 71
2009-05-08 07:43:45 51°12.239 2°49.635 7.6 284 12.9 101070 71
2009-05-08 07:43:50 51°12.238 2°49.634 8 339 12.9 101080 71
2009-05-08 07:43:54 51°12.237 2°49.632 7.8 279 12.9 101080 71
2009-05-08 07:44:00 51°12.235 2°49.629 8.7 339 12.9 101080 72
2009-05-08 07:44:05 51°12.233 2°49.627 9.1 281 12.9 101080 72
2009-05-08 07:44:10 51°12.23 2°49.623 11.6 340 12.9 101070 73
2009-05-08 07:44:15 51°12.228 2°49.62 9.2 280 12.9 101070 73
2009-05-08 07:44:20 51°12.225 2°49.616 9.5 337 13 101070 74
2009-05-08 07:44:25 51°12.222 2°49.611 9.4 281 13 101070 74
2009-05-08 07:44:30 51°12.219 2°49.606 10.7 334 13 101070 75
2009-05-08 07:44:35 51°12.216 2°49.601 11.8 281 13 101070 75
2009-05-08 07:44:40 51°12.213 2°49.595 11.6 333 13 101070 74
2009-05-08 07:44:45 51°12.21 2°49.589 9.5 284 13 101070 74
2009-05-08 07:44:50 51°12.207 2°49.582 9.6 329 13 101070 74
2009-05-08 07:44:55 51°12.204 2°49.576 10.2 278 13 101070 74
2009-05-08 07:45:00 51°12.201 2°49.568 8.6 329 13 101060 74
2009-05-08 07:45:05 51°12.198 2°49.561 10.2 280 13 101060 74
2009-05-08 07:45:10 51°12.195 2°49.553 10.9 328 13 101070 74
2009-05-08 07:45:15 51°12.192 2°49.545 9.2 285 13 101070 74
2009-05-08 07:45:20 51°12.189 2°49.537 10.4 329 13 101070 75
2009-05-08 07:45:25 51°12.186 2°49.529 11.2 283 13 101070 75
2009-05-08 07:45:30 51°12.183 2°49.521 11.1 328 13 101070 75
2009-05-08 07:45:35 51°12.18 2°49.512 10 280 13 101070 75
2009-05-08 07:45:40 51°12.177 2°49.503 11.1 330 13 101070 75
2009-05-08 07:45:45 51°12.174 2°49.494 10.2 283 13 101070 75
2009-05-08 07:45:50 51°12.171 2°49.486 12.2 328 13 101060 74
2009-05-08 07:45:55 51°12.168 2°49.477 11.7 283 13 101060 74
2009-05-08 07:46:00 51°12.164 2°49.468 10.2 332 13 101060 74
2009-05-08 07:46:05 51°12.161 2°49.459 11.6 280 13 101060 74
2009-05-08 07:46:10 51°12.158 2°49.45 14.3 331 13 101070 74
2009-05-08 07:46:15 51°12.154 2°49.441 13.2 282 13 101070 74
2009-05-08 07:46:20 51°12.151 2°49.432 13.1 330 13 101070 74
2009-05-08 07:46:25 51°12.147 2°49.424 12.3 282 13 101070 74
2009-05-08 07:46:30 51°12.143 2°49.415 13.2 332 13 101060 73
2009-05-08 07:46:35 51°12.139 2°49.406 10.8 285 13 101060 73
2009-05-08 07:46:40 51°12.135 2°49.398 13.5 329 12.9 101050 71
2009-05-08 07:46:45 51°12.132 2°49.389 10.9 279 12.9 101050 71
2009-05-08 07:46:50 51°12.128 2°49.381 11.2 331 12.9 101060 70
2009-05-08 07:46:55 51°12.124 2°49.373 11.7 281 12.9 101060 70
2009-05-08 07:47:00 51°12.12 2°49.364 11.1 330 12.9 101060 70
2009-05-08 07:47:05 51°12.116 2°49.356 11.8 286 12.9 101060 70
2009-05-08 07:47:10 51°12.112 2°49.348 11.5 330 12.9 101070 71
2009-05-08 07:47:15 51°12.108 2°49.34 13.4 285 12.9 101070 71
2009-05-08 07:47:20 51°12.104 2°49.331 13.1 333 12.9 101070 70
2009-05-08 07:47:25 51°12.101 2°49.324 14.2 284 12.9 101070 70
2009-05-08 07:47:30 51°12.097 2°49.316 12.2 332 12.9 101060 69
2009-05-08 07:47:35 51°12.093 2°49.308 12.6 277 12.9 101060 69
2009-05-08 07:47:40 51°12.089 2°49.3 13.9 329 12.9 101060 69
2009-05-08 07:47:45 51°12.086 2°49.292 12 286 12.9 101060 69
2009-05-08 07:47:50 51°12.082 2°49.284 13.9 331 12.9 101040 69
2009-05-08 07:47:55 51°12.079 2°49.276 11.3 285 12.9 101040 69
2009-05-08 07:48:00 51°12.076 2°49.268 10.9 333 12.9 101050 68
2009-05-08 07:48:05 51°12.072 2°49.26 12.6 282 12.9 101050 68
2009-05-08 07:48:10 51°12.068 2°49.252 11.6 333 13 101060 68
2009-05-08 07:48:15 51°12.065 2°49.244 11.7 284 13 101060 68
2009-05-08 07:48:20 51°12.061 2°49.236 12.7 333 13 101060 68
2009-05-08 07:48:25 51°12.057 2°49.228 10.4 283 13 101060 68
2009-05-08 07:48:30 51°12.054 2°49.22 10.8 334 13 101070 70
2009-05-08 07:48:35 51°12.05 2°49.212 11.7 279 13 101070 70
2009-05-08 07:48:40 51°12.046 2°49.204 10.8 332 13 101070 71
2009-05-08 07:48:45 51°12.043 2°49.196 11 284 13 101070 71
2009-05-08 07:48:50 51°12.039 2°49.189 11.2 333 13 101060 71
2009-05-08 07:48:55 51°12.035 2°49.181 10.8 281 13 101060 71
2009-05-08 07:49:00 51°12.032 2°49.173 11.5 334 13 101060 70
2009-05-08 07:49:05 51°12.028 2°49.165 13.5 285 13 101060 70
2009-05-08 07:49:10 51°12.024 2°49.157 12.9 334 13 101070 69
2009-05-08 07:49:15 51°12.02 2°49.149 10 284 13 101070 69
2009-05-08 07:49:20 51°12.017 2°49.141 10.2 337 13 101060 68
2009-05-08 07:49:25 51°12.013 2°49.133 11.6 283 13 101060 68
2009-05-08 07:49:30 51°12.009 2°49.126 11.2 334 13 101060 68
2009-05-08 07:49:34 51°12.006 2°49.12 12.2 282 13 101060 68
2009-05-08 07:49:40 51°12.001 2°49.11 9.2 333 13 101070 69
2009-05-08 07:49:45 51°11.998 2°49.103 10.8 285 13 101070 69
2009-05-08 07:49:50 51°11.994 2°49.095 10.1 332 13 101060 70
2009-05-08 07:49:55 51°11.99 2°49.087 10.8 279 13 101060 70
2009-05-08 07:50:00 51°11.986 2°49.079 10 334 13 101070 70
2009-05-08 07:50:05 51°11.983 2°49.071 10.2 277 13 101070 70
2009-05-08 07:50:10 51°11.979 2°49.063 9.3 336 13 101070 71
2009-05-08 07:50:15 51°11.975 2°49.055 12.7 283 13 101070 71
2009-05-08 07:50:20 51°11.972 2°49.047 12.3 333 13 101070 72
2009-05-08 07:50:25 51°11.968 2°49.039 11.7 283 13 101070 72
2009-05-08 07:50:30 51°11.964 2°49.03 12.5 335 13 101070 72
2009-05-08 07:50:35 51°11.961 2°49.022 10.7 277 13 101070 72
2009-05-08 07:50:40 51°11.958 2°49.014 10 331 13 101070 72
2009-05-08 07:50:45 51°11.954 2°49.005 10.5 285 13 101070 72
2009-05-08 07:50:50 51°11.951 2°48.997 12.3 330 13 101070 71
2009-05-08 07:50:55 51°11.947 2°48.988 10.6 286 13 101070 71
2009-05-08 07:51:00 51°11.944 2°48.98 11.1 330 13 101060 72
2009-05-08 07:51:05 51°11.94 2°48.972 12.6 283 13 101060 72
2009-05-08 07:51:10 51°11.937 2°48.963 11.4 331 13 101060 71
2009-05-08 07:51:15 51°11.934 2°48.955 11.6 280 13 101060 71
2009-05-08 07:51:20 51°11.93 2°48.947 11.6 332 13 101070 70
2009-05-08 07:51:25 51°11.927 2°48.938 12.4 282 13 101070 70
2009-05-08 07:51:30 51°11.923 2°48.93 12.3 332 12.9 101050 69
2009-05-08 07:51:35 51°11.92 2°48.922 11.2 285 12.9 101050 69
2009-05-08 07:51:40 51°11.916 2°48.913 10.5 332 13 101060 69
2009-05-08 07:51:45 51°11.913 2°48.905 10.6 279 13 101060 69
2009-05-08 07:51:50 51°11.91 2°48.897 9.6 336 13 101070 69
2009-05-08 07:51:55 51°11.906 2°48.889 10.7 280 13 101070 69
2009-05-08 07:52:00 51°11.902 2°48.881 10.1 337 13 101060 68
2009-05-08 07:52:05 51°11.899 2°48.873 10.6 282 13 101060 68
2009-05-08 07:52:10 51°11.895 2°48.865 10 334 13 101060 69
2009-05-08 07:52:14 51°11.892 2°48.859 12.2 335 13 101060 69
2009-05-08 07:52:20 51°11.888 2°48.849 11 335 13 101070 70
2009-05-08 07:52:25 51°11.884 2°48.842 10.9 336 13 101070 70
2009-05-08 07:52:30 51°11.88 2°48.834 12.2 337 13 101070 69
2009-05-08 07:52:35 51°11.876 2°48.826 12.8 281 13 101070 69
2009-05-08 07:52:40 51°11.873 2°48.818 12.1 337 13 101070 69
2009-05-08 07:52:45 51°11.869 2°48.81 10.5 281 13 101070 69
2009-05-08 07:52:49 51°11.866 2°48.804 11.4 334 13 101070 68
2009-05-08 07:52:55 51°11.862 2°48.794 11.6 281 13 101070 68
2009-05-08 07:53:00 51°11.858 2°48.786 11.2 335 12.9 101060 68
2009-05-08 07:53:05 51°11.854 2°48.778 10.3 278 12.9 101060 68
2009-05-08 07:53:09 51°11.851 2°48.771 11.1 336 12.9 101070 68
2009-05-08 07:53:15 51°11.847 2°48.761 10.8 282 12.9 101070 68
2009-05-08 07:53:20 51°11.844 2°48.753 11.8 334 13 101060 68
2009-05-08 07:53:25 51°11.84 2°48.745 10.8 280 13 101060 68
2009-05-08 07:53:30 51°11.837 2°48.737 11.6 334 12.9 101070 68
2009-05-08 07:53:35 51°11.833 2°48.729 10.2 277 12.9 101070 68
2009-05-08 07:53:40 51°11.83 2°48.721 13.6 333 12.9 101060 68
2009-05-08 07:53:45 51°11.827 2°48.713 13.2 281 12.9 101060 68
2009-05-08 07:53:50 51°11.823 2°48.705 12.8 333 13 101060 68
2009-05-08 07:53:55 51°11.82 2°48.696 11.2 279 13 101060 68
2009-05-08 07:54:00 51°11.817 2°48.688 12.6 335 13 101070 69
2009-05-08 07:54:05 51°11.814 2°48.68 11.6 281 13 101070 69
2009-05-08 07:54:10 51°11.81 2°48.672 11 333 13 101060 69
2009-05-08 07:54:15 51°11.807 2°48.663 11.8 276 13 101060 69
2009-05-08 07:54:20 51°11.804 2°48.655 10.1 333 13 101060 68
2009-05-08 07:54:25 51°11.8 2°48.647 11.3 282 13 101060 68
2009-05-08 07:54:30 51°11.797 2°48.638 9.3 332 13 101080 69
2009-05-08 07:54:35 51°11.794 2°48.63 9.3 281 13 101080 69
2009-05-08 07:54:40 51°11.79 2°48.622 9.2 330 13 101060 69
2009-05-08 07:54:45 51°11.787 2°48.613 9.5 281 13 101060 69
2009-05-08 07:54:50 51°11.784 2°48.605 9.7 334 13 101060 69
2009-05-08 07:54:55 51°11.78 2°48.597 10.3 280 13 101060 69
2009-05-08 07:55:00 51°11.777 2°48.588 11.4 330 13 101070 70
2009-05-08 07:55:05 51°11.774 2°48.58 9.3 332 13 101070 70
2009-05-08 07:55:10 51°11.77 2°48.572 9.9 333 13 101080 71
2009-05-08 07:55:15 51°11.767 2°48.563 9.6 283 13 101080 71
2009-05-08 07:55:20 51°11.764 2°48.555 10.5 331 13 101060 71
2009-05-08 07:55:25 51°11.76 2°48.546 11.4 333 13 101060 71
2009-05-08 07:55:30 51°11.757 2°48.538 11.7 331 13 101070 71
2009-05-08 07:55:35 51°11.754 2°48.53 10.7 285 13 101070 71
2009-05-08 07:55:40 51°11.751 2°48.522 9.8 335 13 101060 71
2009-05-08 07:55:45 51°11.747 2°48.513 10.4 335 13 101060 71
2009-05-08 07:55:50 51°11.744 2°48.505 10.4 335 13 101060 70
2009-05-08 07:55:54 51°11.741 2°48.498 10.7 278 13 101060 70
2009-05-08 07:56:00 51°11.737 2°48.489 12.8 334 13 101060 69
2009-05-08 07:56:05 51°11.734 2°48.48 12.7 282 13 101060 69
2009-05-08 07:56:10 51°11.73 2°48.472 11.1 335 13 101070 71
2009-05-08 07:56:15 51°11.727 2°48.464 10.8 286 13 101070 71
2009-05-08 07:56:20 51°11.724 2°48.456 12 334 13 101070 71
2009-05-08 07:56:25 51°11.72 2°48.448 12.3 280 13 101070 71
2009-05-08 07:56:30 51°11.717 2°48.44 10.4 334 13 101060 70
2009-05-08 07:56:35 51°11.713 2°48.432 11.1 284 13 101060 70
2009-05-08 07:56:40 51°11.71 2°48.424 9.5 333 13 101070 70
2009-05-08 07:56:45 51°11.706 2°48.416 10.7 278 13 101070 70
2009-05-08 07:56:49 51°11.704 2°48.409 11.3 335 13 101060 69
2009-05-08 07:56:55 51°11.7 2°48.4 12 334 13 101060 69
2009-05-08 07:57:00 51°11.696 2°48.392 12.2 333 13 101070 70
2009-05-08 07:57:05 51°11.693 2°48.383 11.1 281 13 101070 70
2009-05-08 07:57:09 51°11.69 2°48.377 10.9 336 13 101070 70
2009-05-08 07:57:15 51°11.686 2°48.368 10.4 278 13 101070 70
2009-05-08 07:57:20 51°11.683 2°48.359 9.7 338 13 101070 69
2009-05-08 07:57:25 51°11.68 2°48.351 11.8 282 13 101070 69
2009-05-08 07:57:30 51°11.676 2°48.343 9.8 332 13 101070 69
2009-05-08 07:57:35 51°11.673 2°48.335 10 281 13 101070 69
2009-05-08 07:57:40 51°11.67 2°48.327 10.3 332 13 101070 70
2009-05-08 07:57:45 51°11.666 2°48.319 9.9 285 13 101070 70
2009-05-08 07:57:50 51°11.663 2°48.311 11.7 333 13 101060 70
2009-05-08 07:57:55 51°11.66 2°48.303 11.6 277 13 101060 70
2009-05-08 07:58:00 51°11.656 2°48.295 11.2 333 13 101080 70
2009-05-08 07:58:05 51°11.653 2°48.287 11.6 332 13 101080 70
2009-05-08 07:58:10 51°11.649 2°48.279 11.1 331 13 101070 70
2009-05-08 07:58:15 51°11.646 2°48.271 11.8 280 13 101070 70
2009-05-08 07:58:20 51°11.642 2°48.263 12.7 329 13 101070 70
2009-05-08 07:58:25 51°11.639 2°48.255 12.5 282 13 101070 70
2009-05-08 07:58:30 51°11.636 2°48.246 11.7 327 13 101070 70
2009-05-08 07:58:35 51°11.632 2°48.238 10.5 328 13 101070 70
2009-05-08 07:58:40 51°11.629 2°48.229 10.1 326 13 101070 70
2009-05-08 07:58:45 51°11.625 2°48.221 10.2 284 13 101070 70
2009-05-08 07:58:50 51°11.622 2°48.213 9.6 326 13 101070 69
2009-05-08 07:58:55 51°11.619 2°48.204 10.4 282 13 101070 69
2009-05-08 07:59:00 51°11.616 2°48.195 9 328 13 101080 68
2009-05-08 07:59:05 51°11.612 2°48.186 9.9 279 13 101080 68
2009-05-08 07:59:10 51°11.609 2°48.178 10.4 329 13 101070 68
2009-05-08 07:59:15 51°11.606 2°48.169 11.2 279 13 101070 68
2009-05-08 07:59:20 51°11.602 2°48.161 11.7 333 13 101070 69
2009-05-08 07:59:25 51°11.599 2°48.152 11.5 283 13 101070 69
2009-05-08 07:59:30 51°11.595 2°48.144 10.4 334 13 101060 69
2009-05-08 07:59:35 51°11.591 2°48.135 12.1 278 13 101060 69
2009-05-08 07:59:40 51°11.588 2°48.127 10.7 334 13.1 101070 68
2009-05-08 07:59:45 51°11.584 2°48.119 11.9 282 13.1 101070 68
2009-05-08 07:59:50 51°11.58 2°48.111 10.3 336 13.1 101070 68
2009-05-08 07:59:55 51°11.576 2°48.102 10.6 281 13.1 101070 68
2009-05-08 08:00:00 51°11.572 2°48.094 11.5 335 13.1 101070 68